Location: Middelsbur
(53.6609°N, 7.5020°E)
Time: 13:05:22
(UTC+00:00)

CZ-2D R/B - Pass Details

Date: 06 July 2020
Orbit: 792 x 844 km, 98.7° (Epoch: 06 August)

Event Time Altitude Azimuth Distance (km) Brightness Sun altitude
Rises 23:46:02 0° 26° (NNE) 3,330 6.6 -13.7°
Reaches altitude 10° 23:49:15 10° 47° (NE) 2,402 5.3 -13.7°
Maximum altitude 23:52:39 17° 87° (E) 1,963 4.2 -13.7°
Drops below altitude 10° 23:56:02 10° 127° (SE) 2,413 4.3 -13.6°
Enters shadow 23:57:19 - 136° (SE) 2,753 4.5 -13.6°
